[[{"header":{"parameterUnit":"m.s-1","parameterCategory":1,"la1":30.2991,"la2":30.254,"lo1":-89.0895,"lo2":-89.0444,"dy":0.0017,"dx":0.0017,"nx":28,"ny":28,"refTime":"2025-12-12T03:00:00:Z","depth":0,"parameterNumber":2,"parameterNumberName":"U-component_of_WINDS"},"data":[0,0,0,0,0,0,0,0,0,0,0,0,0,0,0,0,0,0,0,0,0,0,0,0,0,0,0,0,0,0,0,0,0,0,0,0,0,0,0,0,0,0,0,0,0,0,0,0,0,0,0,0,0,0,0,0,0,0,-1.2582,-1.2583,0,-1.2647,-1.2648,-1.2649,-1.2667,-1.2666,-1.2666,-1.2666,-1.2734,-1.2736,-1.2738,0,0,0,0,0,0,0,0,0,0,0,0,0,-1.2475,-1.2477,-1.2582,-1.2583,-1.2584,-1.2647,-1.2648,-1.2649,-1.2667,-1.2666,-1.2666,-1.2665,-1.2733,-1.2735,-1.2738,0,0,0,0,0,0,0,0,0,0,0,0,0,-1.2529,-1.2478,-1.2582,-1.26,-1.2603,-1.2647,-1.2648,-1.2649,-1.2667,-1.2666,-1.2666,-1.2665,-1.2732,-1.2735,-1.2738,-1.277,0,0,-1.2748,-1.275,0,0,0,0,0,0,0,0,-1.2526,-1.2533,-1.2597,-1.2599,-1.2602,-1.2648,-1.2635,-1.269,-1.2667,-1.2643,-1.2666,-1.2665,-1.2706,-1.2711,-1.2725,-1.2773,-1.2776,-1.2749,-1.2751,-1.2752,-1.2753,0,0,0,0,0,0,0,-1.2522,-1.253,-1.2608,-1.2598,-1.2601,-1.2606,-1.2613,-1.2646,-1.2677,-1.2645,-1.2646,-1.2653,-1.2707,-1.2721,-1.2726,-1.2777,-1.2748,-1.2751,-1.2753,-1.2755,-1.2854,-1.2855,0,0,0,0,0,0,-1.2515,-1.2527,-1.2606,-1.261,-1.2562,-1.2608,-1.2616,-1.2634,-1.2676,-1.2682,-1.2654,-1.2654,-1.2716,-1.2723,-1.2729,-1.2768,-1.2752,-1.2755,-1.2757,-1.2853,-1.2854,-1.2855,0,0,0,0,0,0,-1.2513,-1.2522,-1.2603,-1.2569,-1.258,-1.2611,-1.2631,-1.2636,-1.265,-1.2683,-1.2689,-1.2663,-1.2716,-1.2724,-1.2759,-1.277,-1.2756,-1.2759,-1.2852,-1.2854,-1.2855,-1.2846,0,0,0,0,0,0,-1.251,-1.2521,-1.2533,-1.2569,-1.2582,-1.2632,-1.2631,-1.2637,-1.2655,-1.2656,-1.2693,-1.2699,-1.2716,-1.2754,-1.2762,-1.2775,-1.2762,-1.2852,-1.2853,-1.2854,-1.2845,-1.2847,-1.2848,0,0,0,0,0,-1.2506,-1.2528,-1.2533,-1.2543,-1.2597,-1.2633,-1.264,-1.2659,-1.2656,-1.2668,-1.269,-1.2698,-1.2768,-1.2758,-1.2767,-1.278,-1.2851,-1.2853,-1.2854,-1.2845,-1.2846,-1.2848,0,0,0,0,0,0,-1.2493,-1.2533,-1.2539,-1.2574,-1.26,-1.2636,-1.2652,-1.266,-1.2688,-1.2687,-1.2711,-1.2719,-1.2752,-1.277,-1.2758,-1.2813,-1.281,-1.2813,-1.28,-1.2801,-1.2802,-1.2797,-1.2765,0,0,0,0,0,-1.2494,-1.2519,-1.2554,-1.2581,-1.2594,-1.262,-1.2637,-1.2649,-1.2677,-1.2688,-1.2712,-1.2739,-1.2768,-1.2786,-1.2814,-1.2849,-1.2857,-1.2863,-1.2864,-1.2864,-1.2867,-1.2887,-1.2889,-1.286,-1.286,-1.286,0,0,-1.2497,-1.2522,-1.2536,-1.2579,-1.26,-1.2626,-1.2629,-1.2657,-1.2677,-1.2693,-1.2727,-1.2745,-1.2777,-1.2812,-1.2829,-1.2828,-1.2877,-1.2866,-1.2867,-1.2869,-1.2888,-1.2891,-1.2894,-1.2861,-1.2861,-1.2861,0,0,-1.2514,-1.2536,-1.2561,-1.2582,-1.2615,-1.2633,-1.2639,-1.2673,-1.2686,-1.2721,-1.2733,-1.2758,-1.2806,-1.2828,-1.2846,-1.2872,-1.288,-1.2881,-1.2886,-1.2905,-1.2908,-1.291,-1.2919,-1.2922,-1.2884,-1.2884,-1.2884,0,-1.2514,-1.2553,-1.2573,-1.26,-1.2618,-1.2634,-1.2659,-1.2679,-1.2719,-1.2732,-1.2731,-1.2791,-1.2814,-1.2854,-1.2861,-1.2875,-1.2882,-1.2876,-1.2906,-1.2908,-1.291,-1.2919,-1.2923,-1.2883,-1.2883,-1.2883,-1.2883,0,-1.255,-1.2577,-1.2593,-1.2631,-1.2651,-1.2677,-1.2702,-1.272,-1.2732,-1.275,-1.2785,-1.2813,-1.2846,-1.2857,-1.2869,-1.2899,-1.2898,-1.2901,-1.2898,-1.2913,-1.2921,-1.2925,-1.2883,-1.2883,-1.2883,-1.2883,0,0,-1.256,-1.2609,-1.2614,-1.2631,-1.2668,-1.269,-1.2717,-1.275,-1.2765,-1.2792,-1.2816,-1.2856,-1.286,-1.2879,-1.2894,-1.2911,-1.2929,-1.2912,-1.2913,-1.2913,-1.2964,-1.2961,-1.2965,-1.2935,-1.2936,-1.2937,-1.2962,0,-1.2582,-1.263,-1.2649,-1.2688,-1.2714,-1.2729,-1.2753,-1.2779,-1.2797,-1.2821,-1.2842,-1.287,-1.2872,-1.2884,-1.2901,-1.2923,-1.294,-1.2922,-1.2957,-1.2958,-1.2947,-1.2969,-1.2966,-1.2988,-1.2965,-1.2966,-1.2966,0,-1.2613,-1.264,-1.2681,-1.2715,-1.2727,-1.2747,-1.2779,-1.2802,-1.2832,-1.2844,-1.2866,-1.288,-1.2909,-1.2905,-1.2947,-1.2934,-1.295,-1.2963,-1.2964,-1.2968,-1.2962,-1.2972,-1.2995,-1.2998,-1.2972,-1.2971,-1.2971,0,-1.2615,-1.2662,-1.2693,-1.2707,-1.2748,-1.2762,-1.278,-1.2809,-1.2827,-1.2855,-1.2867,-1.2899,-1.2916,-1.294,-1.2962,-1.2957,-1.3001,-1.2999,-1.3011,-1.3011,-1.3019,-1.3018,-1.3044,-1.3031,-1.3031,-1.3031,-1.303,0,-1.2637,-1.2661,-1.2694,-1.2713,-1.2741,-1.2764,-1.2791,-1.281,-1.2836,-1.2859,-1.2876,-1.2897,-1.2925,-1.295,-1.2968,-1.2999,-1.3007,-1.3018,-1.3022,-1.3015,-1.3014,-1.3025,-1.3024,-1.3031,-1.3031,-1.3031,-1.3031,0,-1.2643,-1.2667,-1.2701,-1.2737,-1.2746,-1.2765,-1.2796,-1.2815,-1.2834,-1.2864,-1.2872,-1.2902,-1.2932,-1.2957,-1.2997,-1.3009,-1.3042,-1.3047,-1.3031,-1.3033,-1.3044,-1.3042,-1.3077,-1.3083,-1.3067,-1.3067,-1.3067,0,-1.2655,-1.2674,-1.2712,-1.2728,-1.2745,-1.2772,-1.279,-1.2814,-1.2833,-1.2868,-1.2883,-1.2915,-1.2941,-1.299,-1.3016,-1.3047,-1.3052,-1.3062,-1.3057,-1.305,-1.3051,-1.305,-1.3052,-1.3063,-1.3063,-1.3063,-1.3063,0,-1.2673,-1.2683,-1.2709,-1.2739,-1.2761,-1.2786,-1.2812,-1.2824,-1.2853,-1.2873,-1.2904,-1.2925,-1.2966,-1.2997,-1.3031,-1.305,-1.3061,-1.3064,-1.3069,-1.3062,-1.3052,-1.3057,-1.3032,-1.3063,-1.3063,-1.3063,-1.3063,-1.3063,-1.2682,-1.2699,-1.2728,-1.2757,-1.2779,-1.2802,-1.2822,-1.2843,-1.2869,-1.2904,-1.2917,-1.2949,-1.2979,-1.3025,-1.3044,-1.307,-1.3071,-1.3078,-1.3079,-1.308,-1.3079,-1.3049,-1.3077,-1.3077,-1.3077,-1.3077,-1.3077,0,-1.27,-1.2719,-1.2745,-1.278,-1.2803,-1.2811,-1.284,-1.2858,-1.2886,-1.2913,-1.2938,-1.2974,-1.3005,-1.3033,-1.3066,-1.3081,-1.3087,-1.3088,-1.3087,-1.3091,-1.3077,-1.3069,-1.3083,-1.3083,-1.3083,-1.3083,-1.3083,-1.3083,-1.2711,-1.2741,-1.2756,-1.2797,-1.2817,-1.2847,-1.2863,-1.2885,-1.2906,-1.2946,-1.2971,-1.2989,-1.3017,-1.3051,-1.308,-1.3088,-1.3098,-1.3099,-1.3108,-1.3093,-1.3092,-1.3091,-1.3084,-1.3101,-1.3101,-1.312,-1.312,-1.312]},{"header":{"parameterUnit":"m.s-1","parameterCategory":1,"la1":30.2991,"la2":30.254,"lo1":-89.0895,"lo2":-89.0444,"dy":0.0017,"dx":0.0017,"nx":28,"ny":28,"refTime":"2025-12-12T03:00:00:Z","depth":0,"parameterNumber":3,"parameterNumberName":"V-component_of_WINDS"},"data":[0,0,0,0,0,0,0,0,0,0,0,0,0,0,0,0,0,0,0,0,0,0,0,0,0,0,0,0,0,0,0,0,0,0,0,0,0,0,0,0,0,0,0,0,0,0,0,0,0,0,0,0,0,0,0,0,0,0,1.2668,1.2669,0,1.2748,1.2749,1.2749,1.2759,1.2758,1.2758,1.2757,1.2837,1.284,1.2843,0,0,0,0,0,0,0,0,0,0,0,0,0,1.2524,1.2527,1.2668,1.2669,1.267,1.2747,1.2749,1.275,1.2759,1.2758,1.2757,1.2756,1.2836,1.284,1.2843,0,0,0,0,0,0,0,0,0,0,0,0,0,1.2594,1.2528,1.2668,1.2684,1.2686,1.2747,1.2749,1.275,1.2759,1.2758,1.2757,1.2756,1.2835,1.2839,1.2844,1.2893,0,0,1.2857,1.2859,0,0,0,0,0,0,0,0,1.259,1.2599,1.2681,1.2683,1.2686,1.2742,1.2727,1.2798,1.276,1.2732,1.2757,1.2755,1.2806,1.2813,1.283,1.2897,1.29,1.2857,1.286,1.2861,1.2863,0,0,0,0,0,0,0,1.2585,1.2596,1.2699,1.2682,1.2685,1.2688,1.2696,1.2741,1.2775,1.2734,1.2735,1.2744,1.2808,1.2826,1.2832,1.2902,1.2857,1.2861,1.2863,1.2865,1.3014,1.3016,0,0,0,0,0,0,1.2577,1.2591,1.2697,1.2702,1.2634,1.2691,1.2701,1.2725,1.2774,1.278,1.2745,1.2744,1.282,1.2827,1.2835,1.2898,1.2861,1.2865,1.2868,1.3013,1.3015,1.3016,0,0,0,0,0,0,1.2574,1.2586,1.2694,1.2647,1.2661,1.2695,1.2722,1.2727,1.2746,1.2783,1.2789,1.2758,1.2819,1.2829,1.2879,1.2901,1.2867,1.2871,1.3011,1.3013,1.3015,1.3023,0,0,0,0,0,0,1.257,1.2585,1.2605,1.2647,1.2663,1.2736,1.2724,1.273,1.2754,1.2754,1.2796,1.2802,1.2819,1.2873,1.2883,1.2906,1.2875,1.301,1.3012,1.3015,1.3021,1.3025,1.3028,0,0,0,0,0,1.2565,1.2603,1.2605,1.2618,1.2688,1.2738,1.2747,1.2765,1.2755,1.2775,1.2799,1.2801,1.2896,1.2878,1.289,1.2914,1.3008,1.3012,1.3015,1.3019,1.3024,1.3028,0,0,0,0,0,0,1.2561,1.2609,1.2612,1.2665,1.2697,1.2739,1.2765,1.277,1.2805,1.2803,1.2825,1.2834,1.2884,1.2904,1.2882,1.2966,1.2951,1.2957,1.2951,1.2956,1.2959,1.2954,1.2878,0,0,0,0,0,1.2567,1.2603,1.2643,1.2686,1.2702,1.273,1.2753,1.2764,1.2798,1.2812,1.2839,1.2872,1.2909,1.2933,1.297,1.3023,1.3033,1.3046,1.305,1.3053,1.3058,1.3089,1.3095,1.3026,1.3026,1.3026,0,0,1.2578,1.2609,1.263,1.2686,1.2712,1.275,1.2742,1.2781,1.281,1.2818,1.2867,1.2888,1.2926,1.2978,1.3003,1.2997,1.3079,1.3057,1.3059,1.3062,1.3093,1.3099,1.3105,1.3029,1.3028,1.3028,0,0,1.2619,1.2645,1.2685,1.2711,1.2752,1.2771,1.278,1.2821,1.2836,1.2886,1.2893,1.2926,1.299,1.3018,1.304,1.3091,1.3095,1.3103,1.3123,1.3153,1.3158,1.3163,1.3183,1.3189,1.3107,1.3107,1.3107,0,1.2628,1.2685,1.2704,1.2744,1.2769,1.2778,1.2819,1.2844,1.2894,1.291,1.2903,1.2984,1.301,1.307,1.3083,1.31,1.3112,1.3098,1.3156,1.3161,1.3166,1.3185,1.3192,1.3108,1.3108,1.3108,1.3108,0,1.2695,1.2735,1.2762,1.2811,1.2838,1.2878,1.2903,1.2929,1.2938,1.2958,1.3009,1.3041,1.3084,1.3099,1.3108,1.316,1.3155,1.3152,1.3138,1.3173,1.3191,1.3198,1.3109,1.3109,1.3109,1.3108,0,0,1.2736,1.2796,1.2805,1.2828,1.2873,1.2904,1.2945,1.2988,1.301,1.3044,1.3079,1.3133,1.313,1.3155,1.3168,1.3194,1.3234,1.3187,1.3188,1.3196,1.3295,1.3298,1.3306,1.3237,1.3238,1.3239,1.3292,0,1.2783,1.2856,1.2875,1.2937,1.2974,1.2984,1.302,1.3051,1.3071,1.3105,1.3127,1.3166,1.3158,1.3174,1.32,1.3224,1.3255,1.322,1.327,1.3272,1.3261,1.3316,1.3319,1.3368,1.3299,1.33,1.3301,0,1.2848,1.2884,1.295,1.2992,1.3008,1.3039,1.3081,1.3114,1.315,1.3162,1.3191,1.3201,1.3244,1.3227,1.3287,1.3263,1.3285,1.3299,1.3302,1.3308,1.3289,1.3324,1.3383,1.3391,1.3313,1.3312,1.3311,0,1.2872,1.2938,1.2986,1.3005,1.3054,1.3076,1.3098,1.3133,1.3158,1.3194,1.3211,1.3251,1.3274,1.3305,1.3326,1.3311,1.3384,1.3369,1.3396,1.3396,1.3412,1.341,1.3476,1.3423,1.3423,1.3423,1.3423,0,1.2924,1.2964,1.2998,1.3028,1.3074,1.3095,1.314,1.3161,1.3193,1.3227,1.3237,1.3269,1.3294,1.333,1.3346,1.3394,1.3403,1.3415,1.3419,1.3415,1.3413,1.343,1.3427,1.3425,1.3425,1.3424,1.3424,0,1.2959,1.2984,1.3038,1.308,1.3092,1.3124,1.316,1.3189,1.3209,1.3253,1.3264,1.3296,1.3338,1.3362,1.3414,1.3425,1.3479,1.348,1.3467,1.3469,1.3495,1.3493,1.3574,1.3586,1.3525,1.3525,1.3526,0,1.2991,1.3023,1.3069,1.3093,1.3115,1.3153,1.3179,1.3201,1.3228,1.3272,1.3296,1.3339,1.3375,1.3442,1.347,1.351,1.3514,1.3539,1.352,1.3515,1.3516,1.3514,1.3518,1.3543,1.3544,1.3544,1.3545,0,1.3045,1.3056,1.3093,1.3135,1.3165,1.3199,1.3233,1.3252,1.3279,1.3308,1.3352,1.338,1.3435,1.3478,1.3521,1.3543,1.3549,1.355,1.3559,1.3556,1.3547,1.3553,1.3477,1.3549,1.3548,1.3548,1.3548,1.3548,1.3081,1.311,1.3147,1.3188,1.3216,1.3247,1.3277,1.3301,1.3338,1.3385,1.3395,1.3442,1.3478,1.3536,1.356,1.3596,1.3591,1.3603,1.3607,1.361,1.3611,1.354,1.3604,1.3604,1.3604,1.3604,1.3604,0,1.3136,1.3161,1.3199,1.3246,1.3278,1.3281,1.3318,1.3345,1.3386,1.342,1.3455,1.3506,1.3547,1.3578,1.3621,1.3644,1.3648,1.3655,1.3654,1.3659,1.3613,1.3602,1.3651,1.3651,1.3651,1.3651,1.3651,1.3651,1.3169,1.3219,1.3234,1.3297,1.3321,1.3368,1.3389,1.3418,1.3445,1.3501,1.3536,1.3556,1.3589,1.3634,1.3673,1.3681,1.3696,1.3703,1.3711,1.3667,1.3662,1.3658,1.3647,1.3706,1.3706,1.3755,1.3756,1.3756]}]]